This is the latest recevied weather packets stored in our database for station/object KQ4WWD. If no packets are shown the sender has not sent any weather packets the latest 10 day(s).
| Time | Temp. | Humidity | Pressure | Rain* | Wind** | Luminosity | Snow |
|---|---|---|---|---|---|---|---|
| 1777673682 | 30.56° C | 55% | 1009.2 hPa | 0 mm | - | 224 W/m² | - |
| 1777673380 | 30° C | 56% | 1009.1 hPa | 0 mm | - | 235 W/m² | - |
| 1777673077 | 30.56° C | 56% | 1008.7 hPa | 0 mm | - | 159 W/m² | - |
| 1777672773 | 30.56° C | 56% | 1008.7 hPa | 0 mm | - | 112 W/m² | - |
| 1777672470 | 31.11° C | 55% | 1008.7 hPa | 0 mm | - | 230 W/m² | - |
| 1777672165 | 31.11° C | 55% | 1008.5 hPa | 0 mm | - | 264 W/m² | - |
| 1777671861 | 31.11° C | 55% | 1008.7 hPa | 0 mm | - | 281 W/m² | - |
| 1777671556 | 30.56° C | 55% | 1008.8 hPa | 0 mm | - | 307 W/m² | - |
| 1777671254 | 31.67° C | 52% | 1008.8 hPa | 0 mm | - | 360 W/m² | - |
| 1777670949 | 31.11° C | 53% | 1008.8 hPa | 0 mm | - | 369 W/m² | - |
| 1777670646 | 31.11° C | 54% | 1009 hPa | 0 mm | - | 365 W/m² | - |
| 1777670343 | 31.11° C | 54% | 1009 hPa | 0 mm | - | 379 W/m² | - |
| 1777670040 | 31.11° C | 54% | 1009 hPa | 0 mm | - | 413 W/m² | - |
| 1777669738 | 31.67° C | 53% | 1008.8 hPa | 0 mm | - | 430 W/m² | - |
| 1777669435 | 31.67° C | 52% | 1008.5 hPa | 0 mm | - | 472 W/m² | - |
| 1777669131 | 32.22° C | 52% | 1008.7 hPa | 0 mm | - | 498 W/m² | - |
| 1777668828 | 31.67° C | 53% | 1008.7 hPa | 0 mm | - | 534 W/m² | - |
| 1777668525 | 31.67° C | 52% | 1008.6 hPa | 0 mm | - | 408 W/m² | - |
| 1777668221 | 31.67° C | 50% | 1008.5 hPa | 0 mm | - | 409 W/m² | - |
| 1777667917 | 31.11° C | 48% | 1008.6 hPa | 0 mm | - | 229 W/m² | - |
| 1777667615 | 31.11° C | 49% | 1008.6 hPa | 0 mm | - | 268 W/m² | - |
| 1777667312 | 31.67° C | 49% | 1008.3 hPa | 0 mm | - | 266 W/m² | - |
| 1777667009 | 31.67° C | 49% | 1008.5 hPa | 0 mm | - | 236 W/m² | - |
| 1777666706 | 31.67° C | 49% | 1009 hPa | 0 mm | - | 257 W/m² | - |
| 1777666402 | 31.67° C | 51% | 1009.1 hPa | 0 mm | - | 227 W/m² | - |
* Rain latest hour (hover to see other rain measurements)
** Current wind speed in m/s (hover to see current wind gust speed)